GW1364 Weather Reports


time (UTC)temp
F
wind
direction
speed
knots
gust
knots
rain 1hr
in
rain 24hr
in
rain mn
in
humidity
%
barometer
mb
20260504033325 46 104 0.0 0.0 0.00 0.00 0.00 55 1016.4
20260504032821 46 119 0.0 0.0 0.00 0.00 0.00 53 1016.5
20260504032319 46 116 0.0 0.0 0.00 0.00 0.00 52 1016.2
20260504031815 46 116 0.0 0.0 0.00 0.00 0.00 51 1016.1
20260504031313 46 106 0.0 0.0 0.00 0.00 0.00 51 1016.2
20260504030809 46 113 0.0 0.0 0.00 0.00 0.00 52 1016.4
20260504030306 46 104 0.0 0.0 0.00 0.00 0.00 54 1016.5
20260504025801 46 107 0.0 0.0 0.00 0.00 0.00 51 1016.2
20260504025259 46 114 0.0 0.0 0.00 0.00 0.00 47 1016.2
20260504024755 46 114 0.0 0.0 0.00 0.00 0.00 48 1016.4
20260504024252 47 110 0.0 0.0 0.00 0.00 0.00 50 1016.4
20260504023749 46 115 0.0 0.0 0.00 0.00 0.00 47 1016.1
20260504023246 46 118 0.0 0.0 0.00 0.00 0.00 47 1016.4
20260504022742 46 119 0.0 0.9 0.00 0.00 0.00 49 1016.2
20260504022238 47 97 0.0 0.9 0.00 0.00 0.00 48 1016.2
20260504021735 47 123 0.0 0.0 0.00 0.00 0.00 45 1016.1
20260504021233 47 109 0.0 0.0 0.00 0.00 0.00 46 1016.0
20260504020729 47 124 0.0 0.0 0.00 0.00 0.00 45 1016.4
20260504020225 47 117 0.0 0.0 0.00 0.00 0.00 44 1016.2
20260504015722 47 112 0.0 0.0 0.00 0.00 0.00 44 1016.1
20260504015218 48 119 0.0 0.0 0.00 0.00 0.00 43 1015.9
20260504014714 49 121 0.0 0.0 0.00 0.00 0.00 41 1015.8
20260504014211 49 116 0.9 0.9 0.00 0.00 0.00 40 1015.9
20260504013709 50 134 0.0 0.0 0.00 0.00 0.00 40 1015.7
20260504013206 50 155 0.9 1.7 0.00 0.00 0.00 37 1016.0
20260504012703 51 110 0.9 0.9 0.00 0.00 0.00 37 1015.8
20260504012201 51 142 0.0 0.9 0.00 0.00 0.00 36 1015.6
20260504011658 51 144 0.9 0.9 0.00 0.00 0.00 36 1015.5
20260504011154 51 121 0.0 0.0 0.00 0.00 0.00 36 1015.6
20260504010650 51 127 0.9 0.9 0.00 0.00 0.00 35 1015.6
20260504010146 51 134 0.9 1.7 0.00 0.00 0.00 36 1015.5
20260504005643 51 191 0.0 0.9 0.00 0.00 0.00 36 1015.6
20260504005139 52 183 0.9 0.9 0.00 0.00 0.00 35 1015.5
20260504004638 52 126 0.0 0.9 0.00 0.00 0.00 35 1015.5
20260504004134 52 191 0.9 1.7 0.00 0.00 0.00 35 1015.4
20260504003631 52 111 3.5 5.2 0.00 0.00 0.00 35 1015.5
20260504003128 53 127 0.9 0.9 0.00 0.00 0.00 34 1015.4
20260504002624 53 107 1.7 2.6 0.00 0.00 0.00 34 1015.5
20260504002122 53 178 2.6 3.5 0.00 0.00 0.00 34 1015.4
20260504001620 53 217 2.6 3.5 0.00 0.00 0.00 33 1015.3
20260504001115 54 119 0.9 0.9 0.00 0.00 0.00 33 1015.4
20260504000613 54 206 4.3 5.2 0.00 0.00 0.00 33 1015.4
20260504000110 55 207 1.7 2.6 0.00 0.00 0.00 33 1015.5
20260503235608 55 227 3.5 5.2 0.00 0.00 0.00 32 1015.5
20260503235104 55 126 2.6 3.5 0.00 0.00 0.00 32 1015.3
20260503234602 56 225 4.3 5.2 0.00 0.00 0.00 31 1015.4
20260503234100 56 207 3.5 3.5 0.00 0.00 0.00 31 1015.5
20260503233556 57 205 3.5 3.5 0.00 0.00 0.00 31 1015.4
20260503233052 57 176 3.5 3.5 0.00 0.00 0.00 30 1015.5
20260503232549 58 196 3.5 5.2 0.00 0.00 0.00 31 1015.4
20260503232047 58 190 1.7 1.7 0.00 0.00 0.00 31 1015.4
20260503231545 58 289 3.5 3.5 0.00 0.00 0.00 29 1015.1
20260503231041 58 237 3.5 6.1 0.00 0.00 0.00 30 1015.1
20260503230537 58 209 3.5 3.5 0.00 0.00 0.00 28 1015.1
20260503230035 59 213 3.5 6.1 0.00 0.00 0.00 28 1015.1
20260503225532 59 234 3.5 3.5 0.00 0.00 0.00 30 1015.0
20260503225027 59 239 5.2 7.0 0.00 0.00 0.00 27 1015.0
20260503224525 59 238 3.5 3.5 0.00 0.00 0.00 30 1015.1
20260503224022 59 205 3.5 5.2 0.00 0.00 0.00 28 1015.1
20260503223520 60 214 6.1 7.8 0.00 0.00 0.00 27 1015.0
20260503223015 60 241 2.6 2.6 0.00 0.00 0.00 27 1015.0
20260503222514 59 295 3.5 5.2 0.00 0.00 0.00 28 1015.1
20260503222012 59 252 4.3 5.2 0.00 0.00 0.00 26 1015.2
20260503221510 59 233 7.0 7.8 0.00 0.00 0.00 26 1015.2
20260503221007 60 238 3.5 3.5 0.00 0.00 0.00 27 1015.2
20260503220503 60 228 3.5 3.5 0.00 0.00 0.00 28 1015.3
20260503215959 60 232 5.2 6.1 0.00 0.00 0.00 27 1015.2
20260503215456 60 159 0.9 0.9 0.00 0.00 0.00 27 1015.1
20260503214954 60 223 5.2 6.1 0.00 0.00 0.00 29 1015.1
20260503214452 60 223 7.0 8.7 0.00 0.00 0.00 27 1015.2
20260503213949 60 269 7.8 8.7 0.00 0.00 0.00 27 1015.1
20260503213447 60 258 4.3 5.2 0.00 0.00 0.00 28 1015.2
20260503212943 61 261 4.3 5.2 0.00 0.00 0.00 27 1015.2
20260503212441 60 128 1.7 2.6 0.00 0.00 0.00 31 1015.3
20260503211938 59 253 3.5 5.2 0.00 0.00 0.00 29 1015.4
20260503211435 59 235 4.3 6.1 0.00 0.00 0.00 28 1015.5
20260503210930 59 222 5.2 6.1 0.00 0.00 0.00 30 1015.2
20260503210427 59 198 5.2 6.1 0.00 0.00 0.00 30 1015.3
20260503205922 60 249 5.2 6.1 0.00 0.00 0.00 29 1015.4
20260503205419 60 199 3.5 5.2 0.00 0.00 0.00 30 1015.4
20260503204915 60 220 3.5 5.2 0.00 0.00 0.00 29 1015.4
20260503204413 60 196 1.7 2.6 0.00 0.00 0.00 30 1015.4
20260503203910 60 231 3.5 5.2 0.00 0.00 0.00 27 1015.5
20260503203407 60 196 1.7 1.7 0.00 0.00 0.00 29 1015.7
20260503202904 59 81 1.7 2.6 0.00 0.00 0.00 31 1015.8
20260503202402 59 224 3.5 5.2 0.00 0.00 0.00 32 1015.9
20260503201900 59 205 3.5 3.5 0.00 0.00 0.00 30 1015.8
20260503201357 60 260 5.2 6.1 0.00 0.00 0.00 31 1015.8
20260503200855 59 263 6.1 8.7 0.00 0.00 0.00 30 1015.8
20260503200350 58 326 2.6 3.5 0.00 0.00 0.00 26 1015.8
20260503195848 59 218 10.4 13.0 0.00 0.00 0.00 27 1015.7
20260503195344 59 249 4.3 6.1 0.00 0.00 0.00 28 1016.1
20260503194841 59 245 6.1 7.0 0.00 0.00 0.00 26 1016.4
20260503194337 59 268 3.5 6.1 0.00 0.00 0.00 27 1016.4
20260503193834 59 338 4.3 6.1 0.00 0.00 0.00 28 1016.2
20260503193330 59 211 2.6 3.5 0.00 0.00 0.00 30 1016.2
20260503192826 58 316 3.5 3.5 0.00 0.00 0.00 31 1016.2
20260503192321 57 242 2.6 5.2 0.00 0.00 0.00 31 1016.4
20260503191818 57 225 8.7 11.3 0.00 0.00 0.00 31 1016.4
20260503191315 57 246 7.8 7.8 0.00 0.00 0.00 28 1016.4
20260503190811 57 327 5.2 7.8 0.00 0.00 0.00 30 1016.6
20260503190309 57 354 3.5 5.2 0.00 0.00 0.00 34 1016.8
20260503185806 57 255 7.8 9.6 0.00 0.00 0.00 32 1016.8
20260503185301 56 339 4.3 7.0 0.00 0.00 0.00 35 1017.0
20260503184801 56 224 6.1 7.0 0.00 0.00 0.00 33 1016.8
20260503184258 56 220 7.8 11.3 0.00 0.00 0.00 31 1017.0
20260503183754 57 283 4.3 7.8 0.00 0.00 0.00 35 1017.1
20260503183252 56 271 6.1 7.8 0.00 0.00 0.00 32 1017.1
20260503182749 56 259 6.1 7.8 0.00 0.00 0.00 31 1017.1
20260503182248 55 232 7.8 9.6 0.00 0.00 0.00 33 1017.0
20260503181744 55 232 8.7 9.6 0.00 0.00 0.00 33 1017.1
20260503181241 55 206 5.2 6.1 0.00 0.00 0.00 32 1017.3
20260503180737 55 218 7.8 9.6 0.00 0.00 0.00 31 1017.2
20260503180236 55 212 2.6 5.2 0.00 0.00 0.00 35 1017.2
20260503175732 55 203 2.6 2.6 0.00 0.00 0.00 36 1017.4
20260503175230 54 242 6.1 7.8 0.00 0.00 0.00 34 1017.3
20260503174726 54 18 1.7 2.6 0.00 0.00 0.00 33 1017.4
20260503174224 54 215 7.8 8.7 0.00 0.00 0.00 37 1017.4
20260503173719 53 202 2.6 2.6 0.00 0.00 0.00 37 1017.6
20260503173215 54 213 7.0 7.8 0.00 0.00 0.00 34 1017.7
20260503172712 53 131 1.7 3.5 0.00 0.00 0.00 37 1017.6
20260503172209 54 225 4.3 5.2 0.00 0.00 0.00 33 1017.7
20260503171705 54 62 1.7 1.7 0.00 0.00 0.00 40 1017.7
20260503171203 53 241 5.2 7.8 0.00 0.00 0.00 36 1017.6
20260503170659 53 137 1.7 2.6 0.00 0.00 0.00 36 1018.0
20260503170157 52 218 7.8 11.3 0.00 0.00 0.00 36 1018.0
20260503160118 49 351 6.1 7.8 0.00 0.00 0.00 41 1018.8
20260503150548 47 232 1.7 2.6 0.00 0.00 0.00 45 1018.9
20260503130938 42 326 6.1 7.8 0.00 0.00 0.00 49 1018.7
20260503130436 42 347 6.1 7.0 0.00 0.00 0.00 50 1018.8
20260503110331 33 120 0.0 0.0 0.00 0.00 0.00 69 1017.9
20260503100257 34 105 0.0 0.0 0.00 0.00 0.00 64 1016.4
20260503090223 35 101 0.0 0.0 0.00 0.00 0.00 66 1016.0
20260503081150 35 198 1.7 1.7 0.00 0.00 0.00 68 1015.6
20260503080646 34 195 1.7 2.6 0.00 0.00 0.00 71 1015.6
20260503080143 33 269 2.6 2.6 0.00 0.00 0.00 76 1015.6
20260503072620 32 121 0.0 0.0 0.00 0.00 0.00 80 1015.3
20260503072117 32 108 0.0 0.0 0.00 0.00 0.00 79 1015.2
20260503071614 32 115 0.0 0.0 0.00 0.00 0.00 80 1015.3
20260503071111 32 76 0.9 0.9 0.00 0.00 0.00 79 1015.3
20260503070608 32 120 0.0 0.0 0.00 0.00 0.00 80 1015.1
20260503070106 32 92 0.0 0.0 0.00 0.00 0.00 79 1015.4
20260503055026 32 118 0.0 0.0 0.00 0.00 0.00 77 1015.3
20260503054522 33 109 0.0 0.0 0.00 0.00 0.00 76 1015.3
20260503054020 33 119 0.0 0.0 0.00 0.00 0.00 76 1015.2
20260503053517 33 116 0.0 0.0 0.00 0.00 0.00 77 1015.2
20260503053015 33 123 0.0 0.0 0.00 0.00 0.00 76 1015.2
20260503052511 33 99 0.0 0.0 0.00 0.00 0.00 77 1015.3
20260503052008 33 88 0.9 0.9 0.00 0.00 0.00 75 1015.1
20260503051503 34 47 0.9 1.7 0.00 0.00 0.00 72 1014.9
20260503051001 34 128 0.9 0.9 0.00 0.00 0.00 73 1015.0
20260503050456 35 66 1.7 1.7 0.00 0.00 0.00 71 1014.9
20260503045955 34 97 0.9 0.9 0.00 0.00 0.00 73 1015.0
20260503045452 33 102 0.0 0.0 0.00 0.00 0.00 74 1015.0
20260503044948 34 126 0.0 0.9 0.00 0.00 0.00 72 1015.2
20260503044445 34 99 0.9 0.9 0.00 0.00 0.00 72 1015.1
20260503043943 35 335 0.9 1.7 0.00 0.00 0.00 70 1015.1
20260503043438 35 115 0.0 0.0 0.00 0.00 0.00 69 1015.0
20260503042935 35 115 0.0 0.0 0.00 0.00 0.00 69 1015.2
20260503042432 36 118 0.0 0.0 0.00 0.00 0.00 67 1014.9
20260503041929 36 112 0.0 0.0 0.00 0.00 0.00 67 1014.9
20260503041425 36 108 0.0 0.0 0.00 0.00 0.00 67 1015.1
20260503040923 36 96 0.0 0.0 0.00 0.00 0.00 67 1015.2
20260503040420 36 104 0.0 0.0 0.00 0.00 0.00 67 1015.0
20260503035917 36 104 0.0 0.0 0.00 0.00 0.00 66 1015.0
20260503035414 37 110 0.0 0.0 0.00 0.00 0.00 65 1014.9
20260503034911 37 106 0.0 0.0 0.00 0.00 0.00 62 1015.3
20260503034409 38 117 0.0 0.0 0.00 0.00 0.00 61 1015.0
20260503033906 38 116 0.0 0.0 0.00 0.00 0.00 59 1015.0